Tracking 17150 objects as of 5-August-2015
HD Live streaming from Space Station

OXP 1

Track OXP 1 now!
10-day predictions
OXP 1 is classified as:


NORAD ID: 22489
Int'l Code: 1993-009A
Perigee: 721.1 km
Apogee: 779.3 km
Inclination: 25.0 °
Period: 99.7 minutes
Semi major axis: 7121 km
RCS: 1.9581 m2 (large)
Launch date: February 9, 1993
Source: United States (US)
Your satellite tracking list
Your tracking list is empty





NASA's NSSDC Master Catalog

Two Line Element Set (TLE):
1 22489U 93009A   15217.20061558  .00000338  00000-0  43630-4 0  9993
2 22489 024.9638 190.6062 0040874 333.8934 132.9893 14.44692245186796

Source of the keplerian elements: AFSPC

N2YO: 323